Weather in Glebovo

Russia / Ryazan Oblast     54°08′11″N   41°10′13″E
temp.,
°C
wind,
m/s
gust,
m/s
humid.,
%
clouds,
%
prec.,
mm/h
press.,
hPa
HPBL,
m
5 august, thu
thu500:00+16nne1172100 0.1 101711
03:00+14nnw128216 0.3 101811
06:00+15nw01767 0.0 101816
09:00+22e115176 0.0 1018595
12:00+26sse11399 0.0 10171981
15:00+25sse223593 0.0 10162190
18:00+25se344198 0.0 1015558
21:00+21se3749100 0.0 1015168
6 august, fri
fri600:00+19sse3657100 0.0 1015112
03:00+19sse3956100 0.0 1014202
06:00+20sse4115339 0.0 1014359
09:00+24s484650 0.0 1014743
12:00+28s473423 0.0 10131903
15:00+30s6828100 0.0 10112814
18:00+28sse693655 0.0 1011771
21:00+24sse5144599 0.0 1011368
7 august, sat
sat700:00+24sse6164170 0.0 1011486
03:00+23sse51643100 0.0 1011490
06:00+22s51542100 0.0 1011469
09:00+23s4943100 0.1 1013472
12:00+27s473560 0.0 1013655
15:00+32sse572564 0.0 10121947
18:00+30sse4832100 0.0 1012410
21:00+24se5134347 0.0 1012268
8 august, sun
sun800:00+22sse5144552 0.0 1012302
03:00+20se4114689 0.0 1013184
06:00+20sse3104743 0.0 1013205
09:00+26s4736100 0.0 1012344
12:00+28ssw51031100 0.0 1013777
15:00+26sse2341100 0.0 101360
18:00+24nw225585 0.2 101367
21:00+20nnw338237 0.2 101548
9 august, mon
mon900:00+19nnw238928 0.0 101560
03:00+17nnw348122 0.0 101668
06:00+17n25734 0.0 1016132
09:00+24n34505 0.0 1015755
12:00+27nnw44345 0.0 10151344
15:00+29nnw44290 0.0 10141797
18:00+27n34360 0.0 1013792
21:00+20nne22570 0.0 101419